User: anonymous   Login
Location: Vancouver
(49.2500°N, 123.1330°W)
Time: 03:10:16
(UTC-07:00)
Language:

Oscar 11 - Orbit

View from above orbital plane
View from above orbital plane
View from above satellite
View from above satellite

Ground track
Ground track

The orbit data is extracted from the following two-line orbital elements,

1 14781U 84021B   16238.74369010  .00000097  00000-0  18380-4 0  9996
2 14781  97.7428 288.5939 0010061  88.1442 272.0924 14.82781025746561
Epoch (UTC): 25 August 2016 17:50:54
Eccentricity: 0.0010061
inclination: 97.7428°
perigee height: 613 km
apogee height: 627 km
right ascension of ascending node: 288.5939°
argument of perigee: 88.1442°
revolutions per day: 14.82781025
mean anomaly at epoch: 272.0924°
orbit number at epoch: 74656

The dashed part of the orbit path shows where the satellite is in the earth's shadow,  

DLR